Home > Weather > Cambridge > Past weeks

Flag for USA Past Weather in Cambridge, Massachusetts, USA — Yesterday and Last 2 Weeks

Now
79 °F

Partly sunny.


Feels Like: 81 °F
Forecast: 65 / 90 °F
Wind: 12 mph from East

Location: Logan International Airport

Current Time: Jul 25, 2016 at 1:56:52 PM

Latest Report: Jul 25, 2016 at 12:54 PM


Visibility: 10 mi

Pressure: 29.87 "Hg

Humidity: 69%

Dew Point: 68 °F

Location of CambridgeLocation

Past Weather in Cambridge — Graph

°F

Cambridge Temperature Yesterday

Maximum temperature yesterday: 90 °F (at 2:54 PM)
Minimum temperature yesterday: 69 °F (at 4:54 AM)
Average temperature yesterday: 77 °F

High & Low Weather Summary for the Past Weeks

 TemperatureHumidityPressure
High97 °F (Jul 22, 3:54 PM)94% (Jul 10, 11:04 AM)30.20 "Hg (Jul 10, 11:04 AM)
Low60 °F (Jul 10, 10:54 PM)25% (Jul 21, 1:54 PM)29.70 "Hg (Jul 22, 5:54 PM)
Average77 °F60%29.96 "Hg
* Reported Jul 10 11:04 AM — Jul 25 11:54 AM, Cambridge, Weather by CustomWeather, © 2016

Note: Actual official high and low records may vary slightly from our data, if they occured in-between our weather recording intervals... More about our weather records

Advertising

Cambridge Weather History for the Previous 24 Hours

Scroll right to see more
 ConditionsComfort  
Time TempWeatherWind HumidityBarometerVisibility
11:54 AM
Mon, Jul 25
79 °FBroken clouds.12 mph62%29.90 "Hg10 mi
10:54 AM78 °FPassing clouds.10 mph58%29.90 "Hg10 mi
9:54 AM80 °FScattered clouds.7 mph54%29.91 "Hg10 mi
8:54 AM75 °FPassing clouds.3 mph64%29.94 "Hg10 mi
7:54 AM72 °FPartly sunny.5 mph68%29.95 "Hg10 mi
6:54 AM70 °FPartly sunny.5 mph81%29.95 "Hg10 mi
5:54 AM68 °FPartly cloudy.No wind84%29.94 "Hg10 mi
4:54 AM68 °FPassing clouds.No wind84%29.95 "Hg10 mi
3:54 AM71 °FPassing clouds.No wind78%29.94 "Hg10 mi
2:54 AM69 °FClear.No wind87%29.95 "Hg10 mi
1:54 AM70 °FPassing clouds.No wind84%29.95 "Hg10 mi
12:54 AM69 °FPassing clouds.No wind87%29.96 "Hg10 mi
11:54 PM
Sun, Jul 24
69 °FPartly cloudy.3 mph84%29.97 "Hg10 mi
10:54 PM72 °FPassing clouds.No wind76%29.97 "Hg10 mi
9:54 PM72 °FPassing clouds.6 mph78%29.96 "Hg10 mi
8:54 PM72 °FScattered clouds.6 mph78%29.96 "Hg10 mi
7:54 PM75 °FScattered clouds.6 mph66%29.93 "Hg10 mi
6:54 PM76 °FBroken clouds.7 mph64%29.92 "Hg10 mi
5:54 PM79 °FScattered clouds.12 mph54%29.90 "Hg10 mi
4:54 PM81 °FBroken clouds.9 mph51%29.91 "Hg10 mi
3:54 PM84 °FScattered clouds.12 mph45%29.91 "Hg10 mi
2:54 PM90 °FBroken clouds.8 mph31%29.91 "Hg10 mi
1:54 PM88 °FScattered clouds.10 mph35%29.91 "Hg10 mi
Weather by CustomWeather, © 2016

See weather overviewHow to use our weather pages